This demonstration page uses our WeatherBlox Daily Observations layout. Learn more.

Left ArrowRight Arrow

Hourly Observations for September 3, 2021

Temp ( °F °C ) Dew Point ( °F °C ) Humidity (%) Winds ( mph kmh ) Pressure ( in mb ) Visibility ( mi km ) Precip ( " mm )
12:53 am 00:53 Clear 63 17.2 42 5.6 47 47 Calm 29.90 1012 10 16 0.00 0.00
1:53 am 01:53 Clear 62 16.7 41 5 46 46 NNW 3 6 29.90 1013 10 16 0.00 0.00
2:53 am 02:53 Clear 60 15.6 40 4.4 47 47 Calm 29.91 1013 10 16 0.00 0.00
3:53 am 03:53 Clear 58 14.4 39 3.9 50 50 Calm 29.91 1013 10 16 0.00 0.00
4:53 am 04:53 Mostly Cloudy 57 13.9 40 4.4 53 53 Calm 29.91 1013 10 16 0.00 0.00
5:53 am 05:53 Clear 56 13.3 41 5 57 57 NW 5 7 29.91 1013 10 16 0.00 0.00
6:53 am 06:53 Mostly Cloudy 55 12.8 39 3.9 55 55 Calm 29.91 1013 10 16 0.00 0.00
7:53 am 07:53 Mostly Sunny 56 13.3 39 3.9 53 53 Calm 29.92 1013 9 14 0.00 0.00
8:53 am 08:53 Sunny 63 17.2 43 6.1 48 48 Calm 29.92 1013 8 13 0.00 0.00
9:53 am 09:53 Sunny 69 20.6 39 3.9 33 33 Calm 29.91 1013 9 14 0.00 0.00
10:53 am 10:53 Hazy 77 25 35 1.7 22 22 Calm 29.91 1013 5 8 0.00 0.00
11:53 am 11:53 Hazy 82 27.8 35 1.7 18 18 Calm 29.89 1012 6 10 0.00 0.00
12:53 pm 12:53 Mostly Cloudy with Haze 86 30 36 2.2 17 17 SSE 7 11 29.87 1012 6 10 0.00 0.00
1:53 pm 13:53 Cloudy with Haze 90 32.2 36 2.2 15 15 S 7 11 29.85 1011 6 10 0.00 0.00
2:53 pm 14:53 Cloudy with Haze 92 33.3 32 0 12 12 S 8 13 29.84 1011 4 6 0.00 0.00
3:26 pm 15:26 Hazy 93 33.9 31 -0.6 11 11 S 8 13 29.81 1010 4 6 0.00 0.00
3:53 pm 15:53 Mostly Cloudy with Haze 93 33.9 26 -3.3 9 9 S 6 9 29.82 1010 4 6 0.00 0.00
4:53 pm 16:53 Hazy 93 33.9 32 0 11 11 SSE 10 17 29.82 1010 6 10 0.00 0.00
5:53 pm 17:53 Hazy 92 33.3 31 -0.6 11 11 SSE 13 20 29.81 1009 6 10 0.00 0.00
6:53 pm 18:53 Hazy 88 31.1 32 0 13 13 S 7 11 29.81 1010 6 10 0.00 0.00
7:53 pm 19:53 Clear with Smoke 79 26.1 39 3.9 24 24 SSE 6 9 29.83 1010 8 13 0.00 0.00
8:53 pm 20:53 Clear with Smoke 78 25.6 43 6.1 29 29 Calm 29.85 1011 9 14 0.00 0.00
9:53 pm 21:53 Clear with Smoke 72 22.2 43 6.1 35 35 Calm 29.87 1012 9 14 0.00 0.00
10:53 pm 22:53 Clear with Smoke 68 20 37 2.8 32 32 NNE 5 7 29.88 1012 8 13 0.00 0.00
11:53 pm 23:53 Clear with Smoke 66 18.9 39 3.9 37 37 NNW 3 6 29.90 1012 9 14 0.00 0.00

Powered by AerisWeather